QUAO2: Spring River Near Quapaw, OK

Data processed at Sat Mar 10 2018 23:21


All information presented herein is the property of the government of the United States of America and may be revised or deleted at any time without prior notice.
Dissemination of this information without the expressed written consent of the Public Affairs Office, Tulsa District U.S. Army Corps of Engineers is strictly prohibited.
These data are gathered electronically and, as presented, have not undergone any form of quality control. These data are not guaranteed to be valid or correct.
Go to home page.
Go to station list.

Upstream stations:

Downstream station:
Previous Day
Next Day
Current Day
    
SHEF ID:       QUAO2     Spring River near Quapaw, OK
STATION TYPE:  

               PRECIP     STAGE  STAGE(2)  RIV-FLOW  BAT-LOAD
                   in        ft        ft       cfs      volt
              Ccp-Rev   Ccp-Rev   Ccp-Rev   Ccp-Rev   Ccp-Rev
(US/Central)
03/08 00:00      0.00      8.48      8.51      2358     12.41
03/08 01:00      0.00      8.49      8.51      2371     12.41
03/08 02:00      0.00      8.47      8.49      2345     12.41
03/08 03:00      0.00      8.46      8.49      2332     12.41
03/08 04:00      0.00      8.46      8.48      2332     12.33
03/08 05:00      0.00      8.45      8.47      2319     12.33
03/08 06:00      0.00      8.44      8.47      2305     12.33
03/08 07:00      0.00      8.44      8.46      2305     12.25
03/08 08:00      0.00      8.44      8.46      2305     12.33
03/08 09:00      0.00      8.43      8.45      2292     12.65
03/08 10:00      0.00      8.42      8.44      2279     13.29
03/08 11:00      0.00      8.41      8.44      2266     13.44
03/08 12:00      0.00      8.40      8.42      2253     13.44
03/08 13:00      0.00      8.40      8.41      2253     13.44
03/08 14:00      0.00      8.39      8.41      2240     13.37
03/08 15:00      0.00      8.38      8.39      2228     13.37
03/08 16:00      0.00      8.38      8.39      2228     13.29
03/08 17:00      0.00      8.37      8.38      2215     13.21
03/08 18:00      0.00      8.37      8.39      2215     13.21
03/08 19:00      0.00      8.36      8.37      2202     12.89
03/08 20:00      0.00      8.36      8.38      2202     12.65
03/08 21:00      0.00      8.34      8.37      2176     12.57
03/08 22:00      0.00      8.34      8.37      2176     12.57
03/08 23:00      0.00      8.34      8.36      2176     12.49